Location: Caltech
(34.1382°N, 118.1253°W)
Time: 22:14:46
(UTC-07:00)

ADEOS II - Visible Passes

Search period start: 28 August 2014 00:00
Search period end: 07 September 2014 00:00
Orbit: 800 x 804 km, 98.3° (Epoch: 26 August)

Date Brightness Start Highest point End Pass type
(mag) Time Alt. Az. Time Alt. Az. Time Alt. Az.
28 Aug 5.0 05:52:50 10° NE 05:56:19 18° E 05:59:46 10° SE visible
01 Sep 5.0 05:48:57 10° NE 05:52:11 16° E 05:55:23 10° SE visible
05 Sep 5.1 05:45:06 10° ENE 05:48:02 15° E 05:50:58 10° SE visible
